Location: Vihti�l�
(61.3833°N, 23.0667°E)
Time: 04:57:32
(UTC+00:00)

Envisat - Pass Details

Date: 29 November 2020
Orbit: 764 x 766 km, 98.1° (Epoch: 22 January)

Event Time Altitude Azimuth Distance (km) Brightness Sun altitude
Rises 04:47:28 0° 17° (NNE) 3,251 6.3 -15.2°
Reaches altitude 10° 04:49:47 10° 19° (NNE) 2,321 5.5 -14.9°
Maximum altitude 04:54:55 80° 106° (ESE) 787 3.1 -14.3°
Drops below altitude 10° 05:00:01 10° 195° (SSW) 2,305 5.5 -13.7°
Sets 05:02:19 0° 196° (SSW) 3,227 6.3 -13.5°
